CAPE
0 0 0 0 0 0 0 0 0 0 0 0 0 0 0 0 0 0 0 0 0 0 0 0 2 0 1 1 2 1 2 3
0 0 0 0 0 0 0 0 0 0 0 0 0 0 0 0 0 0 0 0 0 0 0 0 1 1 3 3 2 3 3 4
0 0 0 0 0 0 0 0 0 0 0 0 0 0 0 0 0 0 0 0 0 0 0 0 1 2 1 2 6 6 4 5
0 0 0 0 0 0 0 0 0 0 0 0 0 0 0 0 0 0 0 0 0 0 0 0 2 2 0 2 7 5 5 3
0 0 0 0 0 0 0 0 0 0 0 0 0 0 0 0 0 0 0 0 0 0 0 1 3 2 0 2 6 6 7 5
0 0 0 0 0 0 0 0 0 0 0 0 0 0 0 0 0 0 0 0 0 0 0 1 1 2 2 0 6 8 7 8
0 0 0 0 0 0 0 0 0 0 0 0 0 0 0 0 0 0 0 0 0 0 0 0 0 2 0 4 8 10 11 11
0 0 0 0 0 0 0 0 0 0 0 0 0 0 0 0 0 0 0 0 0 0 0 0 1 1 1 6 12 9 8 6
0 0 0 0 0 0 0 0 0 0 0 0 0 0 0 0 0 0 0 0 0 0 0 0 2 2 4 6 12 12 10 6
0 0 0 0 0 0 0 0 0 0 0 0 0 0 0 0 0 0 0 0 0 0 0 0 1 2 7 11 9 8 7 2
0 0 0 0 0 0 0 0 0 0 0 0 0 0 0 0 0 0 0 0 0 0 0 0 0 2 8 8 9 8 2 3
0 0 0 0 0 0 0 0 0 0 0 0 0 0 0 0 0 0 0 0 0 0 0 0 1 6 6 8 2 1 1 0
0 0 0 0 0 0 0 0 0 0 0 0 0 0 0 0 0 0 0 0 0 0 0 0 1 4 8 1 0 1 1 0
0 0 0 0 0 0 0 0 0 0 0 0 0 0 0 0 0 0 0 0 0 0 0 0 0 3 4 2 1 1 0 0
0 0 0 0 0 0 0 0 0 0 0 0 0 0 0 0 0 0 0 0 0 0 0 0 0 0 3 1 2 1 0 0
0 0 0 0 0 0 0 0 0 0 0 0 0 0 0 0 0 0 0 0 0 0 0 0 0 1 3 1 0 0 0 1
0 0 0 0 0 0 0 0 0 0 0 0 0 0 0 0 0 0 0 0 0 0 0 0 0 1 2 1 1 1 0 1
0 0 0 0 0 0 0 0 0 0 0 0 0 0 0 0 0 0 0 0 0 0 0 0 0 0 2 2 0 1 1 0
0 0 0 0 0 0 0 0 0 0 0 0 0 0 0 0 0 0 0 0 0 0 0 0 0 0 1 0 0 1 0 0
CIN
0 0 0 0 0 0 0 0 0 0 0 0 0 0 0 0 0 0 0 0 0 0 0 -1 -1 -1 -1 -1 -1 -1 -1 -2
0 0 0 0 0 0 0 0 0 0 0 0 0 0 0 0 0 0 0 0 0 0 0 0 -1 -1 -1 0 0 -1 -1 -1
0 0 0 0 0 0 0 0 0 0 0 0 0 0 0 0 0 0 0 0 0 0 0 0 -2 -1 -1 -1 -1 -1 -1 -2
0 0 0 0 0 0 0 0 0 0 0 0 0 0 0 0 0 0 0 0 0 0 0 -2 -1 -1 -3 -1 -1 0 0 -2
0 0 0 0 0 0 0 0 0 0 0 0 0 0 0 0 0 0 0 0 0 0 0 -1 -2 -2 0 -1 0 0 0 0
0 0 0 0 0 0 0 0 0 0 0 0 0 0 0 0 0 0 0 0 0 0 0 -2 -2 -2 -2 0 0 0 -1 0
0 0 0 0 0 0 0 0 0 0 0 0 0 0 0 0 0 0 0 0 0 0 0 0 -1 -2 -2 -1 0 0 0 0
0 0 0 0 0 0 0 0 0 0 0 0 0 0 0 0 0 0 0 0 0 0 0 0 -2 -2 -2 -1 0 0 0 0
0 0 0 0 0 0 0 0 0 0 0 0 0 0 0 0 0 0 0 0 0 0 0 0 -2 -2 -2 -1 0 0 0 0
0 0 0 0 0 0 0 0 0 0 0 0 0 0 0 0 0 0 0 0 0 0 0 0 -2 -2 -1 0 0 0 0 0
0 0 0 0 0 0 0 0 0 0 0 0 0 0 0 0 0 0 0 0 0 0 0 0 0 -2 0 0 0 0 0 0
0 0 0 0 0 0 0 0 0 0 0 0 0 0 0 0 0 0 0 0 0 0 0 0 -3 0 0 0 0 0 0 0
0 0 0 0 0 0 0 0 0 0 0 0 0 0 0 0 0 0 0 0 0 0 0 0 -2 -1 0 0 0 0 0 0
0 0 0 0 0 0 0 0 0 0 0 0 0 0 0 0 0 0 0 0 0 0 0 0 -1 -1 0 0 0 0 0 0
0 0 0 0 0 0 0 0 0 0 0 0 0 0 0 0 0 0 0 0 0 0 0 0 0 0 0 0 0 0 0 0
0 0 0 0 0 0 0 0 0 0 0 0 0 0 0 0 0 0 0 0 0 0 0 0 0 0 0 0 0 0 0 0
0 0 0 0 0 0 0 0 0 0 0 0 0 0 0 0 0 0 0 0 0 0 0 0 0 0 0 0 0 0 0 0
0 0 0 0 0 0 0 0 0 0 0 0 0 0 0 0 0 0 0 0 0 0 0 0 0 0 0 0 0 0 0 0
0 0 0 0 0 0 0 0 0 0 0 0 0 0 0 0 0 0 0 0 0 0 0 0 0 0 0 0 0 0 0 0
Wind_Speed
4 5 5 6 8 11 14 17 20 23 26 26 26 26 27 28 30 31 32 32 34 34 33 33 32 31 32 32 32 32 32 32
4 5 5 7 8 11 14 17 21 25 28 29 29 29 28 29 29 30 31 33 33 34 32 33 33 32 32 31 32 32 31 29
3 4 5 6 8 11 14 18 22 27 28 29 28 28 28 29 27 28 30 32 32 33 33 33 33 33 31 30 31 31 29 28
2 4 5 6 8 11 14 19 23 27 28 28 28 28 28 28 30 30 32 32 32 32 32 32 32 31 31 29 29 27 29 28
3 5 6 7 9 12 15 20 24 26 28 28 30 30 32 30 30 31 31 31 31 31 31 32 30 30 29 28 27 25 24 25
4 7 7 8 9 12 16 20 24 26 27 29 29 30 30 30 32 33 32 32 32 31 31 32 30 29 28 28 24 21 22 23
6 9 9 9 11 13 17 21 24 26 27 28 29 30 31 32 34 34 34 33 32 31 32 30 29 28 27 24 24 21 18 17
12 11 10 10 11 14 18 21 24 26 26 28 29 29 31 32 34 34 34 34 33 32 31 30 27 26 26 25 20 17 16 12
13 11 11 11 12 15 19 22 24 25 27 28 28 30 31 32 33 33 33 33 31 30 27 25 22 27 25 14 15 7 10 11
13 13 12 13 14 17 20 22 24 25 26 27 29 30 32 32 31 33 33 31 29 26 22 21 25 14 19 17 9 7 12 4
15 14 14 15 16 18 20 22 24 25 25 27 29 30 31 30 31 33 32 30 25 22 20 20 13 15 12 11 15 9 5 2
17 16 16 16 18 19 21 22 23 24 26 28 29 30 30 31 32 33 32 25 23 20 17 13 15 16 14 20 9 6 6 8
18 17 17 18 18 20 21 22 22 25 26 28 29 30 30 31 33 34 30 24 20 22 12 14 16 15 16 12 9 8 7 6
19 18 18 18 19 20 21 21 24 25 26 28 29 30 30 32 34 33 23 20 22 12 15 13 14 15 16 12 10 12 11 8
20 19 19 19 19 20 21 22 23 24 26 27 29 29 30 32 33 31 19 18 14 15 15 13 16 17 17 14 16 13 13 15
21 21 20 20 20 20 21 22 24 25 26 28 28 28 29 31 33 24 18 19 12 14 15 16 17 18 18 15 16 17 18 19
24 22 21 21 21 21 22 23 24 25 26 28 27 28 30 32 31 20 16 16 13 15 17 17 18 20 20 18 16 22 21 22
25 23 22 22 21 22 23 24 24 26 27 27 27 28 29 32 29 20 16 15 16 15 17 19 19 22 22 20 19 23 23 24
26 25 23 23 23 23 24 24 25 26 27 26 26 27 29 30 28 20 17 17 16 14 16 18 20 23 24 22 21 23 24 24
Wind_Direction
14 36 44 48 36 22 15 11 6 3 -0 360 359 359 359 357 354 353 352 352 351 348 347 346 346 342 338 335 331 328 324 320
34 51 53 55 35 24 18 11 7 1 358 357 357 357 358 357 356 356 356 354 352 352 351 348 345 342 338 336 333 329 325 323
48 60 69 59 40 26 18 11 6 1 0 360 1 360 359 358 0 359 358 355 354 353 351 349 346 343 340 338 334 330 327 324
48 88 83 63 46 27 18 10 5 3 3 5 3 3 3 3 1 0 357 356 355 354 353 350 347 346 341 340 338 333 327 325
97 105 93 80 41 29 18 11 6 6 7 6 4 3 1 3 3 0 358 359 358 356 355 352 350 348 346 343 340 336 332 326
105 109 96 69 47 28 18 12 9 10 10 8 8 8 7 6 3 2 2 1 0 359 357 354 353 352 349 346 345 342 334 328
95 100 89 66 44 28 20 15 13 13 12 13 12 11 9 7 5 5 4 3 2 2 359 359 358 358 356 353 348 343 341 335
115 103 89 65 44 30 23 17 15 15 17 15 15 14 11 10 9 8 6 4 5 4 4 3 4 3 359 355 355 351 347 341
112 98 82 62 46 35 25 20 19 21 19 19 19 16 15 14 13 11 9 8 8 8 10 10 9 5 5 1 359 340 351 348
99 93 79 62 50 36 28 27 26 24 24 24 21 20 19 18 18 15 13 13 14 17 17 15 13 9 11 5 352 325 3 319
98 89 75 63 50 40 38 34 31 31 30 27 25 24 24 24 22 19 18 19 25 24 21 20 7 13 339 336 14 288 346 326
96 85 76 63 56 50 44 40 38 36 33 31 30 29 29 28 25 23 23 30 31 29 22 12 15 16 0 21 16 318 43 60
95 87 75 71 62 55 50 47 46 40 38 36 34 33 34 31 28 27 32 39 38 35 15 23 23 15 23 17 32 53 52 61
96 87 80 75 67 63 58 56 49 47 43 41 40 40 39 35 32 33 44 45 43 20 35 20 13 8 13 22 43 60 57 79
99 95 93 85 78 72 67 61 57 52 50 48 46 46 43 40 38 42 52 51 40 40 35 23 24 24 20 38 56 55 65 88
110 112 104 96 88 79 73 69 61 58 56 52 52 51 48 45 44 52 57 57 38 42 39 38 29 31 27 36 61 69 79 84
127 121 113 102 92 87 79 72 64 61 60 56 58 55 52 49 51 58 59 59 47 46 44 41 27 25 36 40 56 80 81 88
133 130 122 105 100 91 82 76 69 65 64 64 64 60 57 54 58 64 60 60 62 48 46 50 40 31 33 42 60 78 84 87
137 134 121 111 102 93 89 83 76 70 69 70 69 65 63 61 65 68 65 68 65 42 40 43 51 46 38 46 68 80 86 86